Starlink 31957

operational
NORAD ID: 59926 Int'l Des: 2024-106 Owner: SPXS Country: US Constellation: starlink
LEOCIRCULAR

Starlink 31957について

説明を読み込み中...

リアルタイム位置

3D地球を読み込み中...

次回通過

高度履歴

Altitude vs Time

uPlot chart will show altitude changes over time

軌道要素

1 59926U 24106E 26033.35811623 .00001032 00000-0 47028-4 0 9998
2 59926 42.9992 171.6848 0000942 268.0790 91.9954 15.27581045 95177
Epoch: Feb 2, 2026 • Age: 31 hours

現在のステータス

高度 482.3 km
速度 7.63 km/s
衛星直下点 8.77°N, 25.86°W
打ち上げ日 Jun 1, 2024
運用期間 1.6 years
タイプ internet

技術仕様

分類 Payload
質量 730.00 kg
乾燥質量 700.00 kg
総質量 730.00 kg
長さ 0.30 m
直径 4.10 m
スパン 29.00 m
形状 Box + pan
製造者 SPXS
バスタイプ Starlink V2M
フェーズステータス In Orbit
所有者/国 SPXS/US

大規模コンステレーション

Loading constellations...